[Date Prev][Date Next][Thread Prev][Thread Next] - [Date Index][Thread Index][Author Index]

2 Line ISS Keps 11-18



ISS
1 25544U 98067A   03322.18315756  .00019339  00000-0  20434-3 0  7849
2 25544  51.6309 323.6149 0006429 147.0018 253.9553 15.64191139285070


----
Via the sarex mailing list at AMSAT.ORG courtesy of AMSAT-NA.
To unsubscribe, send "unsubscribe sarex" to Majordomo@amsat.org



AMSAT Top AMSAT Home